Wetbulb
60.31 60.18 59.90 59.47 59.60 59.41 59.66 60.30 60.76 61.05 61.51 62.15 62.32 62.79 62.32 61.74 60.47 59.05 52.55 55.69 58.31 63.43 61.54 56.37 54.10 54.63 54.19 54.50 54.45 52.53 44.81 42.32 42.32 43.08 43.96 47.10 45.48 47.51 47.85 46.01 47.27 48.60 44.82 45.46 47.26
59.98 59.73 59.45 59.05 59.08 59.22 59.53 60.00 60.64 60.98 61.36 61.81 62.07 62.69 62.05 60.80 59.10 53.71 58.18 62.00 62.88 62.53 54.28 52.24 51.50 52.58 51.04 51.68 51.69 47.64 44.33 43.87 45.75 45.47 44.76 46.41 45.30 44.06 44.72 44.47 43.88 45.57 45.20 46.31 45.42
59.57 59.11 58.83 58.45 58.63 58.78 59.37 60.12 60.53 60.84 61.22 61.39 61.91 62.53 61.07 59.60 55.79 53.11 60.64 62.54 61.75 59.25 54.04 53.09 52.91 53.20 49.93 50.35 48.43 47.31 44.03 45.97 46.91 47.99 46.92 45.45 44.19 44.69 43.29 41.42 42.35 40.72 41.43 43.30 42.89
59.02 58.30 58.03 58.12 58.27 58.26 59.01 59.85 60.43 60.83 61.17 61.29 61.97 62.35 60.15 59.28 48.38 54.20 61.18 62.40 61.54 57.25 53.48 53.09 52.11 49.29 47.24 46.35 48.74 43.35 47.42 47.55 48.54 47.44 45.88 43.94 44.94 43.84 43.81 42.39 43.50 42.42 42.96 42.02 41.12
58.60 57.75 57.58 57.61 57.70 57.71 58.52 59.77 60.45 60.74 60.78 61.36 62.24 62.08 58.94 53.97 51.35 55.33 59.81 58.11 54.97 54.13 52.42 51.44 49.28 48.25 45.74 46.05 47.00 45.00 45.53 46.86 47.14 45.90 44.53 46.20 43.43 43.72 41.94 43.58 42.91 43.12 42.70 40.61 40.29
58.10 57.31 56.90 56.97 57.10 57.00 58.00 59.34 60.19 60.51 60.64 61.66 62.55 59.63 57.94 51.12 55.48 57.95 53.37 53.66 52.22 52.52 51.87 50.85 48.98 49.20 47.28 46.63 44.39 45.87 45.94 45.98 45.96 45.45 45.36 43.70 42.02 43.84 42.18 42.41 41.18 41.67 40.04 39.48 39.75
57.84 57.00 56.49 56.61 56.62 56.38 57.56 58.87 59.93 59.95 60.64 61.71 61.51 59.17 56.16 51.82 54.97 56.41 53.64 51.65 51.78 51.43 51.42 50.36 49.87 48.47 48.42 46.41 46.86 45.08 41.73 43.66 43.80 44.16 43.36 43.41 40.81 40.95 42.27 42.40 40.13 39.37 38.62 39.39 39.80
57.42 56.47 56.10 56.30 55.81 55.98 57.52 58.74 59.19 59.74 60.40 61.27 60.54 58.37 52.44 56.66 56.06 55.55 54.61 53.30 52.67 52.10 51.74 50.60 50.43 48.91 47.12 47.27 44.98 41.59 40.80 38.03 43.28 44.26 43.39 41.26 35.35 39.81 41.83 41.12 37.18 36.79 35.17 37.25 38.83
57.00 56.02 56.03 56.04 55.05 55.68 57.43 58.23 58.65 59.85 60.42 60.45 58.44 55.96 50.51 56.22 54.67 54.93 53.50 50.19 50.89 51.52 50.75 50.04 49.90 47.11 46.12 42.22 40.03 40.85 35.53 37.16 40.07 43.65 42.32 40.76 36.31 39.84 41.26 38.73 35.72 34.52 34.89 35.75 36.60
56.76 55.83 55.88 55.54 54.62 56.13 57.66 58.90 60.09 58.66 58.59 56.30 55.03 52.78 52.42 51.66 54.30 53.29 52.53 50.99 50.07 49.83 49.93 48.22 46.49 42.64 42.81 39.79 32.45 33.17 33.80 36.62 36.22 40.14 40.62 38.59 38.57 39.00 38.76 36.68 33.89 32.97 33.39 33.31 34.02
56.56 55.78 55.64 54.76 54.55 56.68 57.52 57.29 52.62 54.42 52.25 49.78 49.66 49.32 51.50 54.54 53.48 51.75 51.07 49.89 50.46 47.93 44.89 46.42 39.70 38.74 40.41 39.36 38.55 37.91 36.67 35.86 39.55 41.37 36.53 37.12 36.77 38.48 36.91 35.03 32.71 31.96 32.03 32.04 32.93
56.25 55.39 54.69 53.65 53.94 56.69 56.38 50.98 49.47 50.90 44.05 50.48 50.66 50.94 53.60 51.99 47.88 49.38 50.40 46.50 46.48 42.74 46.35 43.52 39.84 40.76 41.55 40.68 39.96 38.52 36.15 35.63 37.98 40.74 37.40 36.36 36.21 35.78 35.28 34.46 33.87 32.67 31.38 31.42 32.40
55.60 54.90 53.88 53.10 54.62 55.87 51.70 50.21 53.67 53.92 45.54 48.52 50.77 51.25 50.66 50.03 47.11 47.10 47.61 45.97 43.79 42.40 42.04 38.28 42.37 41.85 40.01 38.78 38.30 36.82 35.01 33.68 33.52 36.63 37.32 35.37 32.47 31.46 33.16 33.52 34.35 34.19 33.50 32.99 31.75
55.04 54.25 52.68 52.67 53.23 52.79 51.33 52.17 53.49 53.12 41.76 44.76 46.07 49.48 48.61 48.22 44.70 48.35 47.01 44.77 44.45 41.55 39.13 38.40 40.10 39.81 38.48 38.22 37.92 33.00 35.27 35.10 34.32 30.46 25.71 33.26 23.45 29.56 30.19 30.45 32.30 32.66 30.51 30.05 30.47
54.43 53.37 51.66 51.97 51.86 50.84 50.57 52.40 51.91 49.45 31.77 45.20 46.73 50.32 48.84 45.30 45.23 45.71 46.34 43.97 40.54 41.54 38.35 38.21 36.23 35.76 35.83 36.78 37.88 35.32 34.99 33.44 32.85 30.28 28.98 29.53 24.86 29.03 31.14 28.25 30.22 30.49 30.66 29.76 30.07
53.75 51.90 50.98 53.12 52.35 50.12 50.63 50.91 48.42 41.08 31.49 43.46 47.45 45.73 44.63 43.85 44.78 45.79 44.85 44.23 42.83 38.37 38.92 38.30 39.74 37.37 36.34 39.10 37.21 37.29 34.19 33.73 33.04 29.92 20.36 28.02 26.53 27.18 27.61 30.78 29.34 30.07 29.16 30.37 30.01
53.27 50.41 50.63 51.00 49.37 49.85 51.57 49.48 39.80 34.61 44.46 41.68 42.39 44.34 42.57 42.39 43.74 42.42 41.49 38.53 36.43 34.18 34.13 37.25 36.59 37.00 37.49 34.24 36.28 34.45 29.81 21.18 20.51 19.51 19.36 27.67 23.06 27.45 28.74 29.87 29.41 28.86 28.03 28.30 28.72
52.55 49.89 51.95 51.00 51.62 50.19 51.73 42.60 32.46 41.08 42.19 43.06 42.61 41.59 40.33 42.07 41.73 39.67 37.08 35.11 40.03 36.80 32.76 30.67 29.49 35.17 36.95 33.66 29.72 30.81 28.83 20.50 13.92 15.80 18.36 24.05 18.81 26.24 30.52 31.01 31.24 30.55 29.41 29.50 29.16
51.06 51.70 51.67 51.34 51.83 51.52 44.73 36.23 36.52 40.81 44.53 42.59 41.26 38.96 40.10 39.17 37.58 36.15 35.86 36.12 37.88 37.83 31.74 32.06 31.39 33.42 32.94 33.71 32.52 29.96 24.77 29.53 20.89 12.44 11.71 19.76 26.55 28.70 29.80 29.45 29.33 28.51 28.67 27.25 28.40
51.81 51.35 51.80 51.72 51.01 50.22 39.41 38.49 40.92 45.12 43.17 42.08 38.31 41.21 36.31 38.36 35.27 36.21 36.79 38.53 36.82 36.99 36.67 32.70 27.28 32.06 29.71 30.88 30.12 27.69 31.12 21.57 21.56 8.01 7.67 19.52 22.29 23.52 24.56 26.36 26.90 25.85 25.95 26.07 28.11
49.63 47.00 49.41 52.10 51.60 44.34 33.56 37.35 42.49 46.45 45.29 41.91 39.68 38.97 39.63 38.40 38.71 36.77 37.25 38.15 37.98 33.85 33.03 31.65 30.81 26.75 28.89 26.24 26.79 24.41 22.66 24.40 25.35 22.16 13.07 9.34 17.14 27.32 26.04 26.91 24.49 25.44 26.88 26.79 27.73
48.27 42.57 49.52 51.75 41.65 42.24 38.56 41.36 43.83 43.77 43.68 42.85 40.87 40.65 39.37 39.84 38.49 37.01 36.63 39.47 37.30 34.11 29.35 31.41 29.58 23.11 27.23 28.28 28.46 26.38 26.35 25.88 15.64 16.02 18.07 17.42 19.75 30.72 28.45 27.42 26.90 26.37 26.95 26.83 28.12
44.89 45.83 49.45 49.75 37.43 38.97 42.34 42.08 43.67 42.59 41.47 40.33 39.50 41.54 41.40 38.16 33.87 37.14 38.47 34.03 36.34 33.23 29.99 29.07 25.73 22.39 23.51 23.23 25.85 22.86 24.34 24.73 24.80 20.99 16.96 14.45 16.87 28.78 28.77 27.70 26.18 24.78 24.77 26.79 27.63
48.02 39.49 43.91 44.25 43.63 40.61 39.99 40.02 39.58 42.00 41.21 42.15 40.29 41.33 38.73 36.50 38.02 34.89 35.42 32.17 33.14 33.02 34.06 34.36 27.75 26.14 27.00 28.36 26.08 21.17 22.21 24.05 23.37 19.14 20.11 19.39 21.85 26.71 28.77 28.10 24.13 24.64 25.17 25.55 26.72
47.08 42.30 43.00 35.98 38.11 39.77 40.76 40.44 39.29 39.30 41.16 41.70 38.58 38.91 37.80 34.33 34.87 34.50 36.53 28.95 29.68 32.00 30.35 29.81 23.47 25.32 26.34 26.30 25.37 24.51 23.09 22.68 21.50 22.96 20.01 22.68 22.28 26.45 25.88 22.58 21.94 23.32 26.00 25.78 25.73
43.72 41.77 41.85 42.10 41.43 39.01 39.54 38.56 38.83 40.46 41.46 38.77 38.56 39.96 38.36 35.51 37.02 34.14 36.00 34.47 29.35 27.66 27.95 28.84 22.26 25.74 21.75 23.44 23.30 20.52 22.55 23.02 23.72 23.84 22.88 23.74 23.05 29.73 29.34 25.47 23.15 25.15 24.41 24.28 24.18
48.81 48.84 44.90 42.15 40.94 40.18 39.06 39.48 39.78 42.03 43.09 44.18 42.75 39.78 37.00 38.74 39.85 37.89 35.88 36.81 35.04 28.84 26.59 26.63 23.25 20.34 18.70 20.73 20.01 15.09 19.50 21.51 23.43 24.81 24.10 19.02 24.48 28.42 24.87 24.63 22.78 23.24 23.88 22.57 22.35
MSLP
1018.99 1018.53 1017.99 1017.55 1017.12 1016.60 1016.11 1015.57 1015.11 1014.52 1014.08 1013.74 1013.50 1013.31 1013.13 1012.98 1012.64 1012.40 1012.82 1013.54 1013.18 1012.61 1012.49 1011.58 1010.89 1010.56 1010.52 1010.42 1010.43 1010.32 1010.24 1009.27 1008.94 1009.14 1009.59 1009.82 1010.29 1010.62 1010.89 1011.95 1012.78 1013.60 1015.00 1015.89 1015.80
1019.18 1018.74 1018.13 1017.66 1017.20 1016.70 1016.17 1015.54 1015.09 1014.50 1014.01 1013.66 1013.43 1013.22 1012.95 1012.84 1012.50 1012.72 1013.43 1013.12 1012.80 1012.54 1011.89 1011.45 1010.90 1010.61 1010.31 1010.40 1010.57 1010.50 1010.24 1009.59 1009.49 1010.00 1010.34 1010.43 1010.80 1011.35 1011.84 1013.02 1013.97 1014.64 1015.68 1016.06 1016.20
1019.26 1018.83 1018.25 1017.74 1017.23 1016.78 1016.21 1015.63 1015.05 1014.43 1013.92 1013.51 1013.37 1013.18 1013.01 1012.81 1012.69 1013.02 1013.17 1012.86 1012.60 1012.37 1011.89 1011.49 1011.05 1010.64 1010.36 1010.52 1010.63 1010.62 1010.46 1010.23 1010.15 1010.67 1011.05 1011.10 1011.29 1011.78 1012.47 1013.96 1015.13 1015.97 1016.63 1016.92 1017.07
1019.26 1018.81 1018.31 1017.76 1017.24 1016.70 1016.21 1015.60 1015.02 1014.41 1013.92 1013.42 1013.20 1013.17 1013.14 1012.91 1013.33 1013.12 1013.00 1012.69 1012.47 1012.16 1011.79 1011.28 1010.86 1010.63 1010.55 1010.43 1010.88 1011.10 1010.66 1010.76 1010.79 1011.25 1011.65 1011.70 1011.94 1012.92 1013.49 1015.18 1016.03 1016.82 1017.27 1017.54 1017.82
1019.33 1018.83 1018.32 1017.80 1017.19 1016.54 1016.08 1015.50 1014.95 1014.23 1013.77 1013.35 1013.06 1013.11 1013.07 1012.89 1013.29 1012.99 1012.93 1012.59 1012.14 1011.89 1011.94 1011.82 1011.52 1011.52 1011.04 1010.89 1010.94 1011.02 1011.00 1011.26 1011.35 1011.70 1011.96 1012.09 1012.32 1013.21 1014.68 1015.88 1016.84 1017.32 1017.69 1018.02 1018.21
1019.42 1018.93 1018.43 1017.87 1017.08 1016.41 1015.80 1015.29 1014.84 1014.16 1013.63 1013.35 1013.10 1013.13 1013.00 1012.93 1013.20 1012.92 1012.90 1012.72 1012.85 1012.53 1012.48 1012.51 1012.45 1012.26 1012.02 1011.56 1011.49 1011.40 1011.37 1011.25 1011.39 1011.75 1012.12 1012.60 1013.10 1013.64 1015.44 1016.08 1016.99 1017.52 1017.93 1018.31 1018.58
1019.42 1019.00 1018.49 1017.93 1017.20 1016.44 1015.70 1014.74 1014.60 1013.97 1013.38 1013.19 1013.13 1012.86 1012.47 1013.25 1012.95 1012.95 1012.80 1013.13 1013.19 1013.18 1012.90 1013.04 1013.00 1012.68 1012.20 1011.69 1011.68 1011.68 1011.81 1011.45 1011.72 1012.05 1012.41 1012.82 1013.33 1014.14 1015.28 1016.10 1017.03 1017.76 1018.27 1018.52 1018.71
1019.46 1019.11 1018.62 1018.01 1017.30 1016.47 1015.61 1014.50 1014.11 1013.57 1013.22 1013.03 1013.01 1012.52 1012.86 1013.10 1012.95 1012.88 1012.78 1012.76 1012.88 1013.10 1013.20 1013.31 1013.21 1012.97 1012.50 1012.29 1012.16 1011.97 1011.69 1011.58 1011.46 1011.89 1012.56 1013.16 1013.65 1014.32 1015.00 1016.00 1017.31 1017.84 1018.17 1018.40 1018.67
1019.53 1019.12 1018.72 1018.18 1017.36 1016.51 1015.41 1013.90 1013.51 1013.12 1013.07 1012.93 1013.00 1012.56 1012.93 1013.20 1013.24 1013.09 1012.92 1012.97 1012.89 1012.91 1013.07 1013.22 1013.34 1012.96 1012.79 1012.60 1012.34 1012.09 1012.00 1011.74 1011.60 1011.59 1012.41 1013.33 1013.82 1014.70 1015.32 1016.22 1017.32 1017.98 1018.63 1018.86 1018.97
1019.62 1019.21 1018.69 1018.24 1017.45 1016.61 1015.26 1013.31 1012.95 1013.06 1012.83 1012.52 1012.48 1012.98 1013.23 1013.37 1013.34 1013.27 1012.86 1012.98 1012.82 1012.60 1012.66 1012.93 1012.78 1012.74 1012.57 1012.46 1012.86 1012.85 1012.80 1012.36 1012.31 1012.04 1012.44 1013.14 1013.64 1014.60 1015.53 1016.40 1017.43 1018.10 1018.64 1019.09 1019.08
1019.62 1019.25 1018.84 1018.24 1017.52 1016.80 1015.61 1013.54 1014.00 1013.97 1013.70 1013.86 1013.87 1013.73 1013.57 1013.54 1013.63 1013.14 1013.07 1012.88 1012.68 1012.75 1012.73 1012.55 1012.92 1012.94 1012.80 1013.14 1013.38 1013.46 1013.35 1013.06 1012.45 1012.33 1012.89 1013.13 1013.47 1014.14 1015.56 1016.89 1017.76 1018.33 1018.67 1019.08 1019.24
1019.61 1019.31 1018.99 1018.33 1017.66 1016.99 1016.23 1016.67 1018.31 1018.75 1016.33 1014.40 1014.30 1014.37 1014.05 1014.15 1013.69 1013.23 1013.04 1013.06 1012.91 1012.97 1012.82 1012.74 1012.73 1013.13 1013.29 1013.56 1013.84 1013.77 1013.74 1013.49 1012.84 1012.89 1013.51 1013.68 1013.52 1014.22 1015.38 1016.44 1017.40 1018.32 1018.94 1019.31 1019.47
1019.58 1019.34 1018.99 1018.32 1017.69 1017.37 1017.69 1018.91 1019.04 1018.78 1017.82 1014.74 1014.30 1014.08 1014.08 1014.25 1013.71 1013.73 1013.56 1013.39 1013.27 1013.23 1013.36 1013.52 1012.90 1013.24 1013.78 1013.97 1014.04 1014.18 1014.31 1014.15 1014.32 1014.01 1013.97 1013.67 1013.05 1014.52 1015.82 1016.88 1017.66 1018.31 1018.83 1019.13 1019.52
1019.56 1019.34 1018.99 1018.27 1018.37 1017.98 1018.64 1019.28 1019.08 1018.74 1017.57 1015.02 1014.41 1014.14 1014.15 1014.00 1014.13 1014.11 1014.05 1014.13 1013.65 1013.49 1013.78 1013.64 1013.30 1013.79 1014.11 1014.29 1014.42 1014.70 1014.94 1015.26 1015.35 1015.38 1014.59 1014.23 1013.72 1014.62 1015.87 1017.10 1017.92 1018.43 1018.87 1019.34 1019.70
1019.49 1019.37 1019.10 1018.90 1018.82 1018.56 1019.61 1019.35 1019.08 1018.69 1017.12 1014.50 1014.17 1014.20 1013.96 1014.17 1014.33 1014.32 1014.43 1014.28 1014.11 1013.97 1014.31 1013.45 1013.55 1014.07 1014.52 1014.60 1014.91 1015.33 1015.57 1015.74 1015.95 1015.64 1015.10 1015.15 1015.54 1013.65 1014.76 1016.32 1017.26 1018.08 1018.78 1019.22 1019.44
1019.44 1019.42 1019.18 1018.61 1018.80 1019.66 1019.59 1019.29 1018.98 1018.24 1015.60 1014.03 1013.75 1013.80 1013.82 1013.76 1013.86 1014.09 1014.51 1014.53 1014.56 1014.45 1013.92 1013.52 1014.13 1014.69 1014.71 1014.93 1015.43 1015.71 1015.80 1015.77 1015.50 1015.73 1015.95 1015.22 1015.56 1013.94 1014.89 1014.77 1016.67 1017.70 1018.46 1018.92 1019.13
1019.36 1019.45 1019.33 1019.18 1019.33 1019.65 1019.40 1019.09 1018.55 1016.73 1013.96 1013.72 1013.51 1013.56 1013.62 1013.58 1013.72 1014.18 1014.55 1014.85 1014.93 1014.82 1014.28 1013.75 1013.90 1014.86 1015.37 1015.55 1015.77 1016.41 1016.69 1016.89 1016.79 1017.05 1016.59 1016.01 1016.04 1014.26 1014.80 1015.31 1016.62 1017.86 1018.61 1018.88 1018.84
1019.22 1019.44 1019.26 1019.05 1019.40 1019.61 1019.29 1018.78 1017.25 1014.66 1013.47 1013.22 1013.40 1013.67 1013.60 1013.48 1013.77 1014.29 1014.75 1014.81 1014.35 1014.82 1015.16 1014.67 1014.46 1015.36 1015.77 1015.96 1016.41 1016.59 1017.24 1018.45 1018.72 1018.98 1017.76 1016.88 1015.76 1013.92 1014.24 1015.40 1016.46 1017.34 1018.24 1018.69 1018.75
1019.06 1018.95 1018.83 1018.53 1019.19 1019.49 1019.09 1017.63 1014.84 1013.47 1012.97 1013.00 1013.56 1013.52 1013.30 1013.78 1014.32 1014.55 1014.49 1014.36 1014.25 1014.55 1015.45 1015.19 1015.09 1015.74 1016.22 1016.56 1017.00 1017.31 1017.95 1018.56 1019.41 1020.16 1019.65 1017.20 1015.24 1015.04 1014.93 1015.72 1016.50 1017.23 1017.71 1018.64 1019.14
1018.63 1018.51 1017.95 1018.14 1019.04 1019.09 1018.46 1016.01 1013.90 1012.81 1012.81 1012.98 1013.13 1012.74 1012.87 1013.37 1014.28 1014.46 1013.85 1013.37 1014.27 1014.79 1015.42 1016.19 1016.38 1016.34 1017.23 1017.47 1017.67 1017.99 1018.36 1019.36 1020.29 1021.14 1019.73 1016.89 1015.53 1014.70 1015.40 1015.83 1016.54 1017.45 1018.04 1018.48 1018.48
1018.61 1018.48 1018.13 1018.20 1018.83 1018.51 1016.61 1014.80 1013.50 1012.77 1012.81 1013.15 1012.87 1012.69 1012.66 1013.08 1013.27 1013.76 1013.40 1013.64 1014.12 1015.88 1016.63 1017.22 1017.67 1017.49 1017.62 1017.59 1017.42 1018.48 1018.71 1019.22 1019.80 1020.35 1019.61 1017.97 1015.13 1013.94 1014.86 1015.58 1016.52 1017.24 1018.03 1017.88 1018.30
1018.15 1018.41 1017.79 1017.96 1018.45 1016.70 1015.09 1013.79 1013.64 1012.54 1012.45 1012.62 1012.74 1012.84 1012.83 1013.08 1012.99 1013.55 1013.44 1013.98 1014.38 1015.87 1017.19 1017.64 1017.95 1017.76 1017.28 1017.10 1017.30 1017.48 1017.75 1018.45 1019.32 1019.36 1018.96 1017.95 1013.16 1013.10 1014.04 1015.23 1016.06 1016.92 1017.61 1018.02 1018.18
1017.11 1017.34 1018.00 1017.56 1016.37 1015.03 1013.84 1012.93 1012.48 1012.36 1012.36 1012.58 1012.52 1012.22 1012.55 1013.05 1013.63 1013.23 1014.01 1014.95 1015.36 1016.17 1016.85 1017.79 1018.20 1018.31 1017.38 1018.01 1018.20 1018.04 1017.66 1017.77 1018.14 1018.54 1017.34 1017.79 1013.93 1013.46 1014.11 1014.96 1015.79 1016.64 1017.25 1017.46 1017.68
1015.88 1016.05 1016.95 1016.86 1014.94 1014.40 1013.52 1011.91 1011.82 1011.66 1011.76 1011.76 1011.59 1012.13 1012.64 1012.76 1013.21 1013.36 1014.24 1015.67 1016.23 1016.79 1017.51 1017.86 1018.01 1017.50 1016.85 1016.66 1017.56 1018.24 1017.63 1017.54 1018.00 1017.70 1015.51 1014.37 1012.80 1013.79 1013.90 1014.73 1015.62 1016.15 1016.64 1017.12 1017.63
1014.43 1012.79 1012.93 1014.01 1013.98 1013.54 1013.36 1011.23 1010.98 1011.07 1011.02 1011.13 1011.12 1011.65 1012.51 1012.87 1013.46 1013.56 1015.03 1016.49 1017.36 1017.96 1018.32 1018.67 1018.66 1018.50 1017.44 1017.37 1017.39 1017.11 1017.24 1017.08 1016.70 1015.59 1015.64 1011.18 1013.27 1012.86 1014.03 1015.01 1015.48 1016.02 1016.67 1017.24 1017.57
1011.87 1011.65 1011.63 1011.50 1011.90 1012.68 1011.46 1010.06 1010.67 1010.46 1010.41 1010.08 1010.51 1010.99 1011.84 1012.07 1012.81 1012.76 1014.30 1015.37 1016.54 1018.43 1018.85 1019.51 1019.03 1018.71 1017.87 1017.92 1017.75 1016.62 1016.19 1015.95 1015.00 1014.04 1013.57 1012.92 1011.24 1012.53 1013.22 1014.12 1015.05 1016.09 1016.83 1017.36 1017.76
1009.67 1009.77 1010.54 1008.98 1009.92 1010.10 1008.45 1008.42 1008.10 1010.16 1009.79 1009.06 1010.22 1011.06 1011.37 1011.69 1013.00 1013.67 1014.36 1014.61 1015.42 1016.87 1019.03 1019.73 1019.72 1019.50 1018.41 1018.62 1018.74 1016.50 1014.13 1013.69 1012.93 1012.79 1012.83 1012.46 1010.34 1012.62 1013.45 1014.41 1015.48 1016.37 1017.13 1017.76 1018.18
Wind_Speed
19 19 20 20 20 20 20 18 17 17 14 13 13 10 10 9 10 1 7 5 8 14 10 8 7 2 4 2 3 2 2 2 5 5 4 5 7 8 4 8 11 11 13 8 10
19 20 20 21 20 19 19 18 16 17 16 13 12 10 9 8 3 9 2 7 8 8 6 8 8 8 3 2 2 2 2 5 5 6 7 8 6 4 5 10 7 10 13 10 10
19 19 21 21 21 19 18 17 15 17 16 14 11 8 7 4 3 3 5 9 9 7 5 4 6 4 4 1 2 2 2 4 4 7 7 4 5 1 4 7 9 9 8 9 10
19 19 21 21 21 21 19 17 16 17 15 15 10 8 7 3 0 4 9 8 10 7 5 5 6 3 3 1 4 4 2 3 4 6 5 3 4 9 10 9 14 10 8 10 11
17 18 20 21 22 22 20 17 16 17 15 12 10 7 2 3 4 7 9 9 5 6 6 6 6 5 4 3 3 5 3 2 4 3 1 5 3 10 12 15 11 9 10 10 9
16 18 19 21 22 23 24 19 17 16 16 10 8 4 3 3 2 5 6 4 8 6 6 7 5 3 5 3 2 3 5 8 0 2 3 5 2 4 14 14 10 9 9 8 9
15 17 20 21 23 24 24 22 16 17 13 9 6 3 1 3 1 3 5 2 3 4 3 3 4 4 3 4 2 3 4 5 5 3 2 3 5 7 17 13 10 9 7 7 8
14 16 18 21 22 23 24 24 17 15 10 8 7 3 2 2 4 2 6 3 2 2 2 1 3 5 3 3 3 4 3 5 9 8 6 2 3 8 10 11 9 8 7 8 8
13 15 17 20 22 24 25 26 18 9 6 7 4 1 2 2 1 3 3 3 6 3 4 2 3 3 3 3 4 5 3 8 2 10 6 7 4 11 10 12 8 7 7 7 7
12 15 17 19 21 24 25 24 1 4 6 3 3 2 2 1 3 4 1 2 3 6 4 4 4 3 5 1 2 4 6 6 6 2 7 6 10 8 9 11 9 7 7 6 7
10 13 17 19 21 22 14 8 7 1 8 4 4 5 1 4 1 3 2 4 4 4 7 1 1 7 5 5 4 5 7 10 10 4 0 7 8 9 13 9 8 7 6 5 6
9 12 16 19 21 21 6 5 3 1 10 2 2 4 3 2 3 2 6 2 4 6 9 5 8 4 3 3 4 6 9 11 4 4 5 10 16 4 14 11 9 8 4 4 6
8 10 15 18 20 6 6 4 3 3 4 2 2 3 2 2 2 2 6 0 2 4 7 4 7 2 2 5 7 7 8 4 4 7 10 17 14 9 9 6 7 7 4 6 7
6 10 15 21 4 3 3 3 0 3 3 3 3 2 2 2 3 2 2 2 2 5 4 8 3 2 5 7 4 5 4 3 8 6 5 8 9 4 13 11 9 7 6 6 6
4 8 13 10 6 2 2 1 1 2 5 1 3 1 1 2 1 1 1 1 4 7 4 9 2 3 4 4 2 2 2 6 10 12 11 10 7 5 20 14 12 8 6 6 5
2 6 12 1 3 2 2 3 3 1 10 2 3 2 3 4 5 4 2 2 2 4 7 14 6 3 2 2 2 7 6 9 13 9 5 7 5 5 11 15 10 7 6 5 5
2 3 5 3 2 3 3 3 2 5 1 4 2 3 1 3 3 2 1 3 4 6 4 0 10 4 1 4 5 3 4 5 6 2 8 6 5 9 7 10 10 7 5 4 5
5 0 4 3 5 4 3 2 7 7 7 3 2 1 5 3 4 3 1 4 9 5 4 4 4 8 5 2 1 3 0 6 7 4 6 8 9 5 13 11 9 8 5 6 9
6 3 2 4 5 3 3 7 7 8 2 6 2 6 6 3 2 3 9 7 2 9 8 5 4 4 4 3 2 4 4 1 2 2 3 6 7 5 11 9 7 6 7 7 6
2 2 5 11 7 3 4 15 11 5 5 2 7 7 5 5 6 6 7 4 5 2 7 4 8 2 3 1 2 2 3 4 1 3 8 6 8 5 9 5 6 5 4 4 6
2 3 3 6 4 3 9 12 14 18 6 7 7 12 11 8 7 6 7 5 7 4 3 2 4 2 4 7 8 4 4 4 1 5 6 4 6 7 8 7 4 2 3 7 8
4 5 6 6 5 5 13 10 15 20 3 7 1 11 12 8 11 8 7 9 11 9 9 6 4 5 8 3 3 0 6 9 6 6 4 6 17 5 2 9 7 4 4 5 7
4 4 3 4 8 13 8 14 20 20 7 8 11 12 7 7 6 10 11 4 10 10 9 8 4 3 6 2 0 5 6 5 5 2 17 5 10 5 9 10 7 4 4 5 9
4 5 4 4 7 11 16 22 23 9 12 14 8 7 7 10 7 7 8 2 2 5 4 5 5 11 18 7 6 6 8 10 13 13 20 25 30 15 13 13 5 6 6 7 10
7 7 9 7 11 19 18 8 17 18 14 15 10 22 18 13 10 19 11 4 3 5 4 5 9 12 21 16 9 13 9 14 19 24 20 33 23 21 9 4 3 2 5 8 12
8 6 2 8 13 22 24 24 28 22 13 9 24 16 13 23 24 9 13 9 9 8 8 4 5 7 16 7 10 18 17 17 23 26 25 28 34 17 12 2 4 4 6 10 11
9 4 4 10 16 17 21 27 28 19 20 28 22 12 19 21 10 6 2 1 10 14 13 8 6 4 7 5 8 17 23 28 28 20 23 24 30 11 6 2 2 4 6 5 8
Wind_Direction
357 356 354 353 350 346 342 340 336 327 331 333 336 338 336 333 317 246 50 334 303 312 312 261 242 174 240 149 303 301 297 269 32 12 8 85 39 37 136 66 45 61 70 60 30
355 353 353 350 349 343 338 337 334 325 327 332 335 334 333 341 234 71 337 302 301 307 324 354 1 333 225 158 199 283 300 26 6 15 11 9 48 22 59 59 38 56 54 47 48
352 350 349 346 344 342 337 334 332 323 325 326 331 323 328 304 283 47 337 333 324 286 265 281 270 257 291 121 92 356 298 7 11 43 12 316 51 357 111 51 57 72 60 45 46
347 347 344 343 341 339 336 332 330 319 323 320 326 324 343 237 345 29 347 340 312 283 272 317 289 336 309 332 103 289 44 349 21 46 2 354 281 79 78 83 85 73 64 53 38
345 344 342 338 340 337 333 333 329 317 320 316 318 333 272 195 60 4 352 346 357 338 32 350 7 345 314 5 356 213 112 230 277 299 329 308 104 126 93 94 92 85 67 56 52
345 343 341 337 339 336 329 333 328 315 314 314 311 330 247 246 258 21 359 9 19 358 26 10 8 356 282 309 295 360 307 275 146 91 146 2 48 149 107 114 105 96 82 69 60
345 342 339 338 337 333 325 324 324 310 307 309 305 262 342 84 91 353 52 60 339 359 359 70 329 271 16 248 11 291 288 125 186 174 152 348 214 184 119 120 102 84 72 61 63
342 340 339 336 333 330 321 316 319 303 299 292 297 257 54 99 323 34 350 157 181 101 359 27 304 287 257 44 233 252 214 202 167 191 154 112 285 102 121 125 105 98 68 47 33
338 339 338 335 332 327 317 310 308 281 274 294 266 348 134 138 267 334 48 358 294 222 179 222 234 287 116 223 242 214 315 320 290 190 139 185 268 120 117 123 126 100 71 50 40
335 336 336 334 333 324 317 299 268 321 236 239 266 242 135 53 332 322 20 252 301 296 197 234 217 227 230 310 279 326 306 302 290 176 196 268 253 124 138 136 132 102 86 61 43
330 337 334 334 333 321 334 329 354 236 25 273 314 276 60 331 117 190 6 307 215 217 327 110 311 282 47 54 326 272 262 271 279 111 159 243 262 259 150 141 138 120 98 68 48
324 339 335 333 330 318 296 52 61 289 311 185 291 287 267 9 267 127 318 332 357 312 313 312 270 67 22 287 260 276 271 274 298 139 351 270 261 154 164 168 148 128 112 62 25
326 339 335 330 325 313 60 56 337 272 264 245 196 264 110 216 350 56 339 89 300 309 342 289 277 67 279 294 282 282 284 319 289 312 272 275 271 150 155 132 143 157 159 58 33
326 340 339 327 327 343 82 25 288 282 279 208 211 144 184 295 232 5 18 56 268 289 338 266 81 37 307 275 283 279 50 311 280 309 241 53 285 85 167 174 180 156 88 48 17
312 342 337 351 311 290 71 274 214 248 319 288 149 66 97 247 77 161 8 199 229 269 100 249 242 278 272 271 87 250 329 257 260 252 283 255 257 283 157 190 182 141 92 41 12
278 349 335 179 238 68 222 196 231 231 245 148 126 154 216 184 185 144 236 212 71 293 228 248 119 215 276 105 183 324 287 271 251 257 272 254 226 230 179 197 142 117 68 35 353
184 354 332 302 325 155 224 230 272 215 197 165 195 208 32 211 170 162 249 216 241 306 251 252 210 109 156 261 155 226 289 325 334 11 227 74 329 240 139 98 120 101 60 25 346
157 328 186 296 127 172 220 210 227 250 270 70 109 184 236 112 206 116 213 258 233 222 314 261 298 166 154 208 70 202 150 159 257 259 267 25 253 248 123 125 131 89 70 29 17
139 197 222 171 149 214 220 208 211 207 305 137 142 228 215 140 220 196 212 228 268 181 197 310 245 93 29 45 125 153 201 13 2 57 2 231 260 69 140 149 95 48 40 22 349
183 237 221 135 158 212 225 225 235 197 121 104 224 232 260 202 185 189 209 178 198 155 77 348 301 52 98 102 144 252 160 78 124 291 266 250 251 236 186 155 76 21 19 341 341
133 232 100 127 188 216 215 214 237 254 209 201 234 260 259 270 240 233 250 198 153 114 61 33 207 169 127 201 180 168 226 222 346 192 219 296 257 150 156 156 113 5 12 1 336
158 226 157 180 177 209 223 216 228 264 237 239 249 254 265 266 270 253 237 215 119 139 169 193 239 246 249 71 49 305 223 181 161 245 257 251 261 329 100 137 113 68 7 309 327
204 220 152 226 215 224 234 229 234 243 214 195 233 211 186 222 260 219 235 337 139 162 174 177 223 317 279 77 87 235 203 241 254 167 233 230 252 129 152 180 84 59 315 335 332
177 224 163 208 257 246 233 235 234 195 235 219 239 216 212 231 223 264 181 159 120 152 98 150 209 205 253 269 148 220 219 212 219 236 255 235 259 255 272 293 37 6 347 349 330
202 228 174 194 212 227 233 251 233 226 211 201 240 233 237 256 233 236 247 142 160 172 166 171 229 230 255 273 277 265 251 219 218 234 231 262 246 265 256 205 175 354 345 332 330
197 200 169 236 175 207 223 230 236 239 244 208 233 225 219 233 224 232 220 188 193 172 174 180 242 246 267 278 273 267 247 247 244 242 248 258 271 257 283 244 23 344 357 325 317
209 172 206 209 215 223 210 224 232 224 237 239 243 236 234 235 244 288 66 57 168 157 181 185 199 168 246 60 336 280 231 232 244 240 237 245 250 284 244 247 34 6 331 325 330